When you browse on this site, cookies collect data to enhance your experience and personalize the content and advertising you see.
Visit our Privacy Policy to learn more. By continuing to use the site, you agree to this use of cookies and data.
  • In United Kingdom
  • List of Countries
  • For 7 days
  • Water Temperature
  • Satellite Maps
  • Weather Map
  • Weather Widgets
  • user-avatar
    Login

    Hourly Weather Santiago Matatlan

    Today, 22 February, Friday

    Time Temperature Precipitation Wind Pressure Humidity
    00:00 +15°C° 0 mm 0 mps 615 mmHg 73%
    01:00 +14°C° 0 mm 0 mps 615 mmHg 74%
    02:00 +15°C° 0 mm 1 mps 615 mmHg 75%
    03:00 +15°C° 0 mm 1 mps 614 mmHg 76%
    04:00 +15°C° 0 mm 1 mps 614 mmHg 77%
    05:00 +15°C° 0 mm 1 mps 614 mmHg 78%
    06:00 +14°C° 0 mm 1 mps 614 mmHg 79%
    07:00 +18°C° 0 mm 1 mps 616 mmHg 71%
    08:00 +18°C° 0 mm 0 mps 617 mmHg 64%
    09:00 +20°C° 0 mm 0 mps 618 mmHg 56%
    10:00 +24°C° 0 mm 1 mps 619 mmHg 49%
    11:00 +26°C° 0 mm 1 mps 620 mmHg 42%
    12:00 +27°C° 0 mm 2 mps 620 mmHg 35%
    13:00 +28°C° 0 mm 2 mps 620 mmHg 34%
    14:00 +28°C° 0 mm 2 mps 619 mmHg 33%
    15:00 +28°C° 0 mm 2 mps 618 mmHg 32%
    16:00 +27°C° 0 mm 2 mps 618 mmHg 34%
    17:00 +26°C° 0 mm 3 mps 618 mmHg 37%
    18:00 +24°C° 0 mm 3 mps 617 mmHg 39%
    19:00 +23°C° 0 mm 2 mps 617 mmHg 46%
    20:00 +21°C° 0 mm 1 mps 617 mmHg 52%
    21:00 +19°C° 0 mm 1 mps 617 mmHg 58%
    22:00 +19°C° 0 mm 1 mps 617 mmHg 61%
    23:00 +16°C° 0 mm 0 mps 617 mmHg 64%

    Tomorrow, 23 February, Saturday

    Time Temperature Precipitation Wind Pressure Humidity
    00:00 +15°C° 0 mm 0 mps 617 mmHg 67%
    01:00 +15°C° 0 mm 0 mps 616 mmHg 69%
    02:00 +16°C° 0 mm 1 mps 616 mmHg 70%
    03:00 +15°C° 0 mm 1 mps 615 mmHg 72%
    04:00 +15°C° 0 mm 1 mps 615 mmHg 73%
    05:00 +15°C° 0 mm 1 mps 615 mmHg 74%
    06:00 +14°C° 0 mm 1 mps 615 mmHg 75%
    07:00 +18°C° 0 mm 1 mps 616 mmHg 68%
    08:00 +20°C° 0 mm 1 mps 617 mmHg 60%
    09:00 +22°C° 0 mm 1 mps 619 mmHg 52%
    10:00 +24°C° 0 mm 1 mps 619 mmHg 44%
    11:00 +26°C° 0 mm 1 mps 620 mmHg 35%
    12:00 +28°C° 0 mm 1 mps 621 mmHg 27%
    13:00 +28°C° 0 mm 1 mps 620 mmHg 25%
    14:00 +29°C° 0 mm 1 mps 620 mmHg 23%
    15:00 +29°C° 0 mm 1 mps 619 mmHg 21%
    16:00 +28°C° 0 mm 2 mps 619 mmHg 26%
    17:00 +26°C° 0 mm 2 mps 618 mmHg 31%
    18:00 +25°C° 0 mm 3 mps 618 mmHg 36%
    19:00 +23°C° 0 mm 2 mps 618 mmHg 45%
    20:00 +20°C° 0 mm 2 mps 618 mmHg 54%
    21:00 +19°C° 0 mm 1 mps 618 mmHg 62%
    22:00 +19°C° 0 mm 1 mps 618 mmHg 67%
    23:00 +18°C° 0 mm 1 mps 618 mmHg 71%

    Day after tomorrow, 24 February, Sunday

    Time Temperature Precipitation Wind Pressure Humidity
    00:00 +18°C° 0 mm 1 mps 618 mmHg 76%
    01:00 +16°C° 0 mm 1 mps 618 mmHg 78%
    02:00 +16°C° 0 mm 1 mps 617 mmHg 81%
    03:00 +15°C° 0 mm 1 mps 617 mmHg 84%
    04:00 +15°C° 0 mm 1 mps 617 mmHg 85%
    05:00 +15°C° 0 mm 1 mps 617 mmHg 86%
    06:00 +15°C° 0 mm 1 mps 617 mmHg 87%
    07:00 +16°C° 0 mm 1 mps 618 mmHg 79%
    08:00 +19°C° 0 mm 1 mps 619 mmHg 71%
    09:00 +19°C° 0 mm 2 mps 620 mmHg 62%
    10:00 +21°C° 0 mm 2 mps 620 mmHg 55%
    11:00 +24°C° 0 mm 2 mps 621 mmHg 48%
    12:00 +25°C° 0 mm 2 mps 621 mmHg 41%
    13:00 +26°C° 0 mm 2 mps 620 mmHg 41%
    14:00 +26°C° 0 mm 2 mps 620 mmHg 40%
    15:00 +27°C° 0 mm 3 mps 619 mmHg 39%
    16:00 +25°C° 0.3 mm 3 mps 619 mmHg 46%
    17:00 +24°C° 0.3 mm 3 mps 618 mmHg 53%
    18:00 +21°C° 0.3 mm 3 mps 618 mmHg 59%
    19:00 +20°C° 0.1 mm 3 mps 618 mmHg 65%
    20:00 +19°C° 0.1 mm 3 mps 618 mmHg 71%
    21:00 +17°C° 0.1 mm 2 mps 618 mmHg 77%
    22:00 +17°C° 0 mm 2 mps 618 mmHg 79%
    23:00 +16°C° 0 mm 2 mps 618 mmHg 81%

    25 February, Monday

    Time Temperature Precipitation Wind Pressure Humidity
    00:00 +16°C° 0 mm 2 mps 618 mmHg 83%
    01:00 +15°C° 0 mm 2 mps 618 mmHg 83%
    02:00 +15°C° 0 mm 1 mps 617 mmHg 83%
    03:00 +14°C° 0 mm 1 mps 617 mmHg 83%
    04:00 +14°C° 0 mm 1 mps 616 mmHg 85%
    05:00 +13°C° 0 mm 2 mps 616 mmHg 86%
    06:00 +13°C° 0 mm 2 mps 616 mmHg 87%
    07:00 +14°C° 0 mm 2 mps 617 mmHg 79%
    08:00 +16°C° 0 mm 2 mps 618 mmHg 70%
    09:00 +17°C° 0 mm 2 mps 619 mmHg 61%
    10:00 +20°C° 0 mm 2 mps 620 mmHg 52%
    11:00 +23°C° 0 mm 2 mps 620 mmHg 44%
    12:00 +25°C° 0 mm 2 mps 621 mmHg 35%
    13:00 +26°C° 0 mm 2 mps 620 mmHg 35%
    14:00 +26°C° 0 mm 3 mps 620 mmHg 35%
    15:00 +27°C° 0 mm 3 mps 619 mmHg 35%
    16:00 +25°C° 0 mm 3 mps 619 mmHg 41%
    17:00 +24°C° 0 mm 3 mps 618 mmHg 46%
    18:00 +22°C° 0 mm 3 mps 618 mmHg 52%
    19:00 +20°C° 0 mm 3 mps 618 mmHg 59%
    20:00 +19°C° 0 mm 2 mps 618 mmHg 67%
    21:00 +17°C° 0 mm 2 mps 618 mmHg 75%
    22:00 +16°C° 0 mm 2 mps 618 mmHg 78%
    23:00 +16°C° 0 mm 2 mps 618 mmHg 80%

    26 February, Tuesday

    Time Temperature Precipitation Wind Pressure Humidity
    00:00 +15°C° 0 mm 1 mps 617 mmHg 83%
    01:00 +15°C° 0 mm 1 mps 617 mmHg 83%
    02:00 +14°C° 0 mm 1 mps 616 mmHg 83%
    03:00 +14°C° 0 mm 1 mps 616 mmHg 83%
    04:00 +14°C° 0 mm 1 mps 616 mmHg 82%
    05:00 +13°C° 0 mm 1 mps 616 mmHg 81%
    06:00 +13°C° 0 mm 1 mps 616 mmHg 80%
    07:00 +15°C° 0 mm 1 mps 617 mmHg 73%
    08:00 +18°C° 0 mm 1 mps 618 mmHg 65%
    09:00 +20°C° 0 mm 1 mps 619 mmHg 58%
    10:00 +22°C° 0 mm 1 mps 620 mmHg 51%
    11:00 +24°C° 0 mm 1 mps 620 mmHg 45%
    12:00 +26°C° 0 mm 1 mps 621 mmHg 38%
    13:00 +27°C° 0 mm 2 mps 620 mmHg 37%
    14:00 +27°C° 0 mm 2 mps 619 mmHg 36%
    15:00 +27°C° 0 mm 2 mps 619 mmHg 35%
    16:00 +26°C° 0.3 mm 3 mps 618 mmHg 41%
    17:00 +25°C° 0.3 mm 3 mps 618 mmHg 47%
    18:00 +22°C° 0.3 mm 3 mps 618 mmHg 53%
    19:00 +21°C° 0.3 mm 3 mps 618 mmHg 62%
    20:00 +19°C° 0.3 mm 2 mps 618 mmHg 70%
    21:00 +18°C° 0.3 mm 2 mps 617 mmHg 79%
    22:00 +18°C° 0 mm 1 mps 617 mmHg 82%
    23:00 +18°C° 0 mm 1 mps 617 mmHg 84%

    27 February, Wednesday

    Time Temperature Precipitation Wind Pressure Humidity
    00:00 +15°C° 0 mm 0 mps 617 mmHg 87%
    01:00 +15°C° 0 mm 0 mps 617 mmHg 88%
    02:00 +15°C° 0 mm 1 mps 616 mmHg 89%
    03:00 +15°C° 0 mm 1 mps 616 mmHg 90%
    04:00 +15°C° 0 mm 1 mps 616 mmHg 90%
    05:00 +14°C° 0 mm 1 mps 616 mmHg 91%
    06:00 +14°C° 0 mm 1 mps 616 mmHg 91%
    07:00 +16°C° 0 mm 1 mps 617 mmHg 81%
    08:00 +17°C° 0 mm 0 mps 618 mmHg 71%
    09:00 +19°C° 0 mm 0 mps 619 mmHg 61%
    10:00 +21°C° 0 mm 0 mps 619 mmHg 53%
    11:00 +25°C° 0 mm 1 mps 620 mmHg 44%
    12:00 +27°C° 0 mm 1 mps 620 mmHg 35%
    13:00 +27°C° 0 mm 1 mps 620 mmHg 34%
    14:00 +27°C° 0 mm 1 mps 619 mmHg 32%
    15:00 +27°C° 0 mm 2 mps 618 mmHg 31%
    16:00 +26°C° 0.1 mm 2 mps 618 mmHg 37%
    17:00 +25°C° 0.1 mm 2 mps 618 mmHg 42%
    18:00 +23°C° 0.1 mm 2 mps 617 mmHg 47%
    19:00 +21°C° 0.1 mm 2 mps 617 mmHg 54%
    20:00 +20°C° 0.1 mm 2 mps 618 mmHg 60%
    21:00 +19°C° 0.1 mm 2 mps 618 mmHg 66%
    22:00 +19°C° 0 mm 1 mps 617 mmHg 71%
    23:00 +18°C° 0 mm 1 mps 617 mmHg 77%
    Show more